Location: lozzo di cadore
(46.4899°N, 12.4508°E)
Time: 12:44:33
(UTC+02:00)

Envisat - Pass Details

Date: 30 April 2025
Orbit: 761 x 763 km, 98.3° (Epoch: 13 May)

Event Time Altitude Azimuth Distance (km) Brightness Sun altitude
Rises 02:30:05 0° 35° (NE) 3,232 7.5 -26.0°
Reaches altitude 10° 02:34:35 10° 72° (ENE) 2,298 6.0 -25.7°
Maximum altitude 02:35:45 11° 86° (E) 2,245 5.7 -25.6°
Drops below altitude 10° 02:36:55 10° 99° (E) 2,294 5.6 -25.5°
Enters shadow 02:39:22 - 123° (ESE) 2,688 5.7 -25.3°
